Temp
16 16 17 17 17 17 18 18 18 18 18 19 19 19 19 19 19 19 19 19 19 18 18 18 18 18 18 19 18 18 18 18 18 18 18 17 16 17 16 17 16 16 16
17 16 17 17 17 18 18 18 18 19 19 19 19 19 19 19 19 19 19 19 18 18 18 18 18 18 18 18 18 18 17 17 18 17 17 17 16 16 16 17 17 17 17
17 17 17 17 18 19 19 19 19 19 20 19 19 20 19 19 19 19 19 19 19 18 17 17 17 17 17 18 17 17 17 17 17 17 17 17 16 16 17 17 17 17 17
17 17 17 17 18 19 19 19 19 19 20 20 20 19 19 19 19 19 19 19 18 18 17 17 17 17 17 17 17 17 17 17 17 17 17 17 17 16 17 16 17 16 16
17 17 17 17 18 19 19 19 19 20 20 20 20 19 19 19 19 19 18 18 18 18 17 17 17 17 17 18 18 18 18 17 18 17 17 17 17 17 18 18 17 17 17
17 17 17 18 18 19 19 19 20 20 20 19 20 20 19 19 19 19 18 18 18 18 18 18 18 18 18 18 18 18 17 17 17 18 18 17 17 17 17 17 16 16 16
17 17 18 18 19 19 19 20 20 20 19 19 19 19 19 19 19 19 18 18 18 18 18 18 18 18 18 18 18 18 17 17 17 17 18 17 18 17 17 17 17 17 16
18 17 18 19 19 19 19 19 19 20 19 19 19 19 19 19 19 19 19 18 18 18 18 18 18 18 18 18 18 18 17 17 17 17 17 17 17 17 16 17 17 17 16
18 18 18 19 19 19 19 19 19 19 19 19 19 19 19 18 18 18 18 18 18 18 18 18 18 18 18 18 18 18 18 17 17 17 17 17 17 17 16 17 17 17 17
18 18 19 19 19 19 19 19 19 20 20 20 19 19 18 18 18 19 19 19 19 18 18 18 17 18 18 18 18 18 18 18 18 17 17 17 17 16 16 17 16 16 16
18 18 19 19 19 19 19 19 19 19 20 20 19 19 18 18 18 18 19 19 19 18 18 18 18 18 18 18 18 18 18 18 18 18 18 17 17 18 18 16 15 16 16
18 18 19 19 19 19 19 19 19 19 20 20 19 19 19 19 19 19 19 19 19 18 18 18 18 18 18 18 18 18 17 18 18 18 18 17 17 17 17 16 17 16 16
19 19 19 19 19 19 19 20 20 20 20 20 19 19 19 19 19 18 19 19 19 19 18 18 18 18 18 18 18 18 18 18 18 18 17 17 17 16 17 17 17 17 16
19 19 19 19 19 19 19 20 20 20 20 20 20 19 19 19 19 19 19 19 19 19 18 18 18 18 18 18 18 18 18 18 18 17 17 17 17 17 16 17 17 17 16
19 19 19 19 19 20 20 20 20 20 20 20 20 19 19 19 19 19 19 19 18 19 19 18 18 18 18 18 18 18 18 18 18 17 17 17 17 17 16 16 16 17 17
20 20 19 20 20 20 20 20 20 20 20 20 20 19 19 19 19 19 19 19 19 19 19 19 19 19 18 18 18 18 18 18 18 17 17 17 17 17 16 16 16 17 17
20 20 20 20 20 20 20 20 20 20 20 20 20 20 19 19 19 19 18 18 18 18 18 18 18 18 18 18 18 18 18 18 18 18 17 17 17 17 17 17 16 16 16
20 20 20 20 20 20 20 21 20 20 20 20 20 20 20 19 19 19 18 18 18 18 18 18 18 18 17 18 18 18 18 18 18 18 17 17 17 17 17 17 17 17 16
20 20 20 20 21 21 21 21 20 20 20 20 19 20 20 19 19 18 18 18 18 18 18 18 17 17 18 18 18 18 18 18 18 18 18 18 17 17 17 17 16 17 17
21 21 21 21 21 21 21 20 20 20 19 19 19 20 20 20 19 19 18 18 18 18 18 18 18 17 18 17 18 18 18 18 18 18 18 18 17 17 17 17 17 17 17
21 21 21 21 21 20 20 20 19 20 19 19 20 20 20 20 20 19 19 19 18 18 18 18 18 17 17 17 17 18 18 18 18 18 18 18 17 17 17 17 16 16 17
22 22 22 22 21 21 20 20 20 20 20 20 19 19 20 20 20 19 19 19 19 18 18 18 18 17 17 17 17 18 18 18 18 18 18 18 17 17 17 17 17 17 16
22 22 22 22 22 21 21 20 20 20 20 20 19 19 19 20 20 19 19 19 19 18 18 18 18 17 18 17 17 18 18 18 17 17 17 18 17 17 17 17 17 17 16
23 23 23 22 22 22 21 21 20 20 20 20 20 19 19 20 20 19 19 19 19 19 19 19 18 17 18 18 18 18 18 18 17 17 17 17 17 17 17 17 17 17 16
23 23 23 23 23 22 22 21 21 20 21 21 20 20 19 20 20 20 19 19 19 19 19 19 18 18 18 18 17 18 18 18 18 18 18 17 17 17 17 17 17 17 16
23 23 23 23 23 23 22 22 21 21 21 21 20 20 20 20 20 20 20 19 19 19 19 19 18 18 18 18 17 17 17 18 18 18 18 17 17 17 17 17 17 17 17
Height
1532 1535 1537 1540 1543 1546 1548 1550 1554 1557 1559 1560 1562 1563 1565 1565 1565 1565 1565 1565 1564 1564 1564 1564 1564 1565 1565 1565 1564 1563 1564 1563 1563 1563 1563 1564 1566 1567 1568 1568 1569 1570 1571
1532 1536 1540 1543 1545 1548 1551 1553 1556 1559 1561 1563 1564 1566 1566 1566 1567 1567 1567 1567 1566 1566 1566 1566 1566 1565 1566 1565 1565 1565 1565 1565 1565 1565 1565 1566 1566 1568 1569 1570 1570 1572 1573
1535 1539 1543 1546 1548 1550 1553 1556 1559 1561 1564 1565 1566 1568 1568 1568 1569 1569 1569 1568 1568 1567 1567 1567 1567 1567 1567 1568 1568 1568 1568 1568 1567 1567 1567 1568 1569 1569 1570 1571 1572 1573 1575
1536 1541 1545 1548 1550 1553 1556 1559 1561 1564 1566 1567 1569 1570 1570 1570 1571 1571 1571 1570 1569 1569 1569 1569 1569 1569 1569 1569 1569 1570 1569 1570 1570 1569 1569 1570 1570 1571 1572 1573 1574 1576 1577
1538 1543 1546 1550 1553 1555 1558 1561 1563 1565 1567 1569 1570 1571 1572 1572 1572 1572 1572 1571 1571 1571 1571 1571 1570 1570 1570 1571 1571 1571 1570 1571 1572 1571 1571 1572 1572 1573 1574 1575 1576 1577 1579
1540 1545 1549 1552 1555 1557 1560 1563 1565 1567 1569 1571 1572 1572 1572 1573 1574 1574 1574 1573 1573 1573 1572 1572 1572 1572 1572 1572 1572 1572 1573 1573 1574 1574 1574 1574 1575 1575 1576 1577 1579 1579 1581
1541 1546 1550 1553 1556 1559 1562 1565 1567 1569 1571 1572 1573 1573 1574 1575 1575 1575 1576 1575 1575 1575 1575 1575 1575 1574 1574 1574 1574 1574 1574 1575 1575 1575 1576 1575 1577 1577 1578 1579 1580 1582 1583
1543 1547 1551 1555 1558 1561 1564 1566 1568 1571 1572 1574 1575 1575 1576 1576 1577 1577 1578 1577 1577 1577 1577 1578 1578 1577 1577 1577 1576 1576 1576 1576 1576 1576 1577 1577 1578 1579 1580 1581 1581 1583 1584
1545 1548 1551 1555 1559 1562 1565 1567 1570 1572 1574 1575 1576 1577 1578 1578 1578 1579 1579 1579 1579 1580 1580 1580 1580 1580 1580 1580 1579 1578 1578 1578 1578 1578 1578 1578 1579 1580 1581 1582 1582 1584 1586
1546 1549 1552 1556 1559 1562 1565 1568 1571 1573 1574 1576 1577 1578 1579 1580 1580 1580 1581 1581 1581 1581 1582 1582 1582 1582 1582 1581 1581 1580 1580 1579 1579 1579 1579 1579 1580 1582 1583 1583 1585 1586 1588
1546 1550 1553 1556 1559 1563 1565 1568 1571 1573 1575 1577 1578 1580 1580 1581 1582 1582 1582 1582 1583 1584 1584 1584 1583 1582 1583 1583 1582 1581 1581 1581 1580 1579 1579 1581 1581 1582 1583 1584 1586 1587 1589
1544 1549 1552 1556 1559 1562 1565 1568 1571 1573 1575 1577 1579 1580 1581 1582 1583 1583 1583 1584 1584 1585 1585 1585 1585 1584 1584 1583 1582 1582 1582 1582 1582 1582 1582 1582 1582 1582 1584 1585 1586 1588 1590
1544 1548 1551 1554 1558 1561 1564 1567 1570 1573 1575 1577 1579 1581 1582 1583 1583 1584 1584 1584 1585 1585 1586 1586 1586 1586 1585 1584 1584 1583 1583 1583 1582 1582 1582 1582 1582 1583 1584 1585 1587 1589 1590
1542 1545 1549 1553 1556 1559 1563 1566 1570 1572 1575 1577 1579 1581 1582 1583 1584 1585 1585 1585 1585 1586 1586 1586 1586 1586 1586 1585 1585 1585 1584 1584 1584 1583 1583 1583 1583 1583 1584 1586 1587 1589 1591
1540 1543 1547 1551 1554 1557 1561 1565 1568 1571 1574 1577 1579 1581 1582 1583 1584 1585 1585 1585 1586 1586 1587 1587 1586 1586 1586 1585 1585 1585 1585 1585 1584 1584 1584 1584 1585 1585 1585 1587 1588 1589 1590
1539 1542 1545 1549 1553 1556 1559 1563 1567 1570 1573 1576 1578 1580 1582 1583 1584 1585 1585 1585 1585 1586 1586 1586 1586 1586 1585 1585 1585 1585 1586 1586 1585 1584 1585 1585 1585 1585 1586 1586 1587 1589 1590
1537 1541 1543 1547 1551 1554 1558 1562 1566 1569 1572 1574 1577 1580 1582 1583 1584 1584 1584 1585 1585 1584 1585 1586 1586 1585 1585 1585 1585 1586 1586 1586 1586 1585 1585 1586 1586 1587 1587 1587 1587 1589 1590
1536 1539 1543 1546 1549 1553 1557 1561 1564 1567 1570 1573 1576 1579 1581 1582 1583 1584 1583 1584 1584 1584 1584 1584 1584 1584 1585 1585 1586 1586 1586 1586 1586 1586 1586 1587 1588 1588 1588 1589 1588 1589 1590
1533 1538 1540 1543 1547 1551 1555 1559 1563 1566 1569 1572 1575 1577 1579 1580 1582 1583 1583 1583 1583 1583 1583 1583 1583 1584 1584 1585 1585 1586 1586 1586 1586 1587 1588 1588 1588 1589 1590 1590 1590 1590 1591
1530 1535 1539 1542 1545 1549 1553 1557 1561 1564 1567 1569 1572 1574 1576 1578 1580 1580 1581 1581 1582 1582 1583 1583 1583 1583 1584 1584 1584 1585 1586 1587 1587 1588 1588 1588 1589 1590 1591 1591 1591 1591 1592
1527 1531 1535 1538 1542 1546 1549 1553 1556 1559 1563 1566 1569 1571 1573 1575 1577 1578 1579 1580 1581 1581 1582 1582 1582 1582 1583 1583 1584 1585 1587 1587 1588 1588 1589 1589 1589 1590 1590 1590 1591 1591 1592
1520 1524 1529 1533 1538 1542 1546 1550 1553 1557 1560 1564 1567 1569 1571 1572 1574 1575 1576 1579 1580 1580 1580 1581 1581 1582 1581 1582 1583 1584 1586 1588 1588 1589 1590 1590 1591 1591 1590 1590 1590 1591 1592
1512 1516 1521 1526 1530 1536 1541 1546 1549 1553 1556 1559 1562 1564 1567 1570 1571 1573 1574 1576 1578 1579 1580 1580 1580 1581 1581 1582 1583 1584 1585 1587 1588 1589 1590 1591 1591 1591 1592 1592 1591 1591 1592
1504 1510 1515 1521 1526 1531 1536 1540 1543 1546 1549 1552 1556 1560 1564 1567 1568 1570 1572 1573 1575 1577 1578 1578 1579 1580 1580 1581 1582 1582 1583 1585 1586 1588 1590 1590 1591 1591 1592 1592 1592 1592 1593
1499 1504 1509 1514 1519 1525 1529 1533 1537 1541 1544 1548 1552 1556 1559 1562 1565 1567 1569 1571 1572 1574 1576 1576 1577 1578 1579 1580 1581 1582 1582 1583 1583 1584 1586 1588 1589 1590 1591 1592 1593 1593 1593
1495 1499 1503 1507 1512 1516 1521 1527 1530 1534 1538 1544 1548 1551 1554 1558 1561 1563 1565 1568 1570 1572 1573 1574 1575 1576 1578 1579 1580 1581 1582 1583 1583 1583 1584 1585 1586 1588 1589 1590 1591 1592 1592
Wind_Speed
28 26 25 25 26 26 25 26 25 25 25 22 19 18 17 16 15 14 14 14 14 14 13 12 11 11 10 9 9 11 13 11 9 9 9 11 9 8 9 10 10 11 12
33 27 26 24 25 26 26 27 27 26 23 20 19 18 16 14 14 13 14 13 14 14 13 12 10 10 10 9 8 7 6 11 10 12 13 13 13 9 10 9 9 13 11
33 26 24 25 25 28 29 29 27 23 21 20 19 16 14 13 12 13 13 13 13 13 12 10 10 9 9 9 8 8 10 10 11 11 11 11 11 10 10 11 12 12 11
31 27 23 25 27 29 29 27 24 22 20 19 17 15 13 11 13 14 12 13 13 13 12 10 9 8 8 8 6 7 8 8 10 10 8 11 11 9 10 12 12 13 12
29 28 24 27 28 29 27 25 23 20 19 17 16 14 12 13 14 13 14 14 13 13 11 11 10 9 9 8 7 7 8 8 10 10 9 9 10 11 11 12 12 11 9
28 28 26 28 28 28 25 23 21 19 18 17 15 13 12 13 14 14 14 13 13 12 10 11 10 10 10 9 8 7 6 5 7 9 7 10 10 11 12 12 12 10 10
29 28 28 28 27 25 24 22 21 19 17 16 14 12 12 13 14 13 12 12 12 11 10 11 12 12 12 12 11 9 9 6 3 7 6 10 9 11 11 11 10 10 10
28 29 29 28 26 24 23 21 20 18 16 14 13 13 14 13 13 11 11 11 11 10 10 11 11 11 12 11 11 11 10 10 4 5 5 9 9 11 11 9 9 9 10
28 29 28 28 26 24 22 20 18 16 14 13 12 12 11 11 10 9 9 10 11 11 10 10 10 9 10 10 11 10 10 9 7 6 4 6 9 9 9 7 9 9 9
28 27 28 27 26 24 22 20 18 15 12 12 11 11 10 9 7 7 7 8 10 10 9 8 8 8 9 11 8 9 9 8 9 7 4 5 6 7 6 6 7 9 9
28 27 26 26 26 24 22 20 18 15 13 11 10 9 8 7 5 5 7 8 10 8 7 8 7 8 10 7 8 7 4 7 8 9 7 3 5 5 6 7 8 6 7
30 28 26 25 24 23 22 20 19 16 14 12 10 9 7 5 7 6 7 6 8 7 6 4 7 7 6 8 7 6 3 3 6 6 6 4 2 4 5 8 7 7 5
30 28 27 26 24 23 22 21 19 17 15 14 12 10 7 6 4 3 5 5 4 6 6 4 3 5 4 5 6 8 3 3 6 7 4 3 1 5 4 5 6 7 7
30 28 27 26 25 24 22 20 19 17 16 15 12 10 8 6 5 8 5 6 6 6 6 3 2 1 1 4 6 9 8 5 2 6 3 2 3 3 6 3 6 8 9
30 28 27 26 26 24 22 20 19 18 17 16 14 11 7 7 6 4 4 3 4 7 3 2 3 4 1 1 0 4 6 3 4 2 2 2 3 1 4 7 6 7 8
30 28 27 27 26 25 23 21 19 18 17 16 15 11 7 7 5 4 1 2 3 3 4 4 2 3 4 4 5 1 5 3 4 1 1 2 3 4 1 5 7 6 6
29 26 28 27 26 26 23 21 20 19 17 17 17 11 9 7 7 5 4 3 5 5 6 4 4 5 3 2 3 1 1 2 9 9 4 1 2 3 4 1 4 6 7
29 27 25 27 27 26 25 23 21 19 20 18 17 14 14 11 9 8 5 6 7 5 7 6 4 4 2 2 2 2 3 3 2 7 3 2 1 1 5 5 3 1 4
33 29 26 27 27 27 27 25 22 22 20 19 17 16 16 14 13 10 6 6 5 6 6 5 5 3 3 3 5 5 3 0 2 4 4 2 1 1 1 2 4 3 2
31 31 28 28 26 24 25 27 25 24 23 21 20 18 18 16 15 11 10 7 6 7 6 5 6 5 4 6 8 4 5 2 4 2 2 5 3 1 0 3 2 4 4
34 33 33 33 30 28 27 31 29 28 25 20 20 18 17 15 11 11 11 9 9 9 9 8 5 5 6 7 4 5 6 3 5 2 1 4 5 2 1 2 3 2 2
37 37 36 34 32 32 30 29 31 31 28 23 21 20 19 16 13 10 12 11 10 11 11 9 8 7 9 8 5 8 8 5 7 6 4 2 6 8 7 6 1 2 2
42 42 41 38 37 35 34 32 32 31 31 29 27 25 22 18 16 12 12 12 11 12 10 10 9 7 5 9 8 6 6 5 10 10 8 5 5 6 6 7 8 6 5
46 44 44 42 40 38 36 36 35 33 31 30 32 28 25 21 18 18 15 15 14 12 11 9 10 8 7 10 10 10 10 6 9 8 13 10 8 5 3 2 4 6 6
49 48 47 45 43 41 39 39 37 37 32 27 26 28 30 27 22 20 18 17 15 15 13 11 11 10 8 12 12 8 10 11 10 8 10 15 14 9 6 5 4 3 2
50 50 49 50 48 45 45 44 42 38 35 31 29 26 27 28 26 24 22 21 19 17 15 12 12 12 9 11 12 12 10 9 9 10 10 9 15 13 11 9 10 10 9
Wind_Direction
147 138 143 136 136 138 141 140 140 138 135 133 129 124 122 113 107 102 97 95 95 98 104 113 120 126 130 125 118 108 90 72 90 107 120 123 131 114 110 125 128 114 121
151 147 146 141 138 140 141 141 138 137 135 133 129 128 120 111 106 104 95 94 95 94 102 112 118 130 134 122 127 121 93 72 79 108 110 118 123 110 114 113 121 129 124
154 149 146 143 141 141 138 136 138 135 136 133 130 124 115 107 106 97 91 91 94 99 100 104 111 118 130 120 107 95 93 93 84 107 107 113 108 113 106 111 111 123 135
153 153 149 144 144 143 141 139 137 138 137 132 127 120 111 107 100 93 90 91 94 95 95 98 100 106 110 131 116 93 99 101 90 95 110 122 117 111 109 115 116 119 118
152 156 152 147 146 145 144 142 140 141 135 129 124 116 106 99 101 96 93 91 94 94 94 96 98 103 108 118 124 99 103 118 88 83 113 114 121 112 108 117 115 124 118
154 157 153 154 151 148 145 144 144 139 133 129 121 112 103 104 101 96 95 95 96 96 96 95 92 86 89 88 85 82 76 111 87 76 101 121 118 116 112 114 114 118 122
158 159 159 160 157 153 149 148 144 138 134 128 124 112 108 108 101 97 97 100 101 101 100 96 87 78 79 77 67 73 71 107 60 38 97 122 122 127 122 125 122 124 121
162 162 164 165 163 159 156 153 146 142 135 132 126 116 112 106 101 100 98 102 105 106 104 96 85 77 68 72 67 65 69 59 46 45 105 122 123 133 134 136 130 128 127
165 166 168 170 170 166 164 160 158 150 140 138 133 123 118 108 101 95 96 103 111 110 106 97 84 73 56 65 67 60 62 55 63 81 89 121 129 133 151 140 141 141 143
168 171 172 175 177 175 174 171 170 164 153 150 139 131 116 112 107 92 93 108 126 119 110 93 78 59 61 70 65 51 60 65 56 54 102 123 137 153 157 152 147 151 148
175 177 179 179 181 183 183 182 181 176 169 164 150 137 125 102 97 94 106 111 125 122 106 94 60 50 56 53 33 40 40 86 71 60 56 117 140 151 167 162 155 171 163
181 183 185 184 184 187 189 190 190 187 181 176 164 149 133 116 107 92 116 120 142 141 146 117 83 52 36 28 49 43 56 75 80 75 59 52 153 170 165 172 168 177 167
184 187 190 190 191 193 193 195 195 195 190 185 174 161 152 152 136 103 129 172 156 170 145 149 97 49 35 68 54 39 61 108 53 20 18 42 99 194 175 179 182 185 181
190 191 194 196 198 199 197 199 199 198 194 188 181 178 161 154 141 120 129 135 134 157 158 142 102 29 55 81 64 47 50 67 46 45 23 60 66 194 203 187 197 200 196
192 192 194 197 201 201 202 201 200 197 194 188 184 184 176 160 154 150 148 144 146 152 145 205 293 299 11 249 6 46 24 3 334 19 42 23 59 70 209 206 201 214 212
195 198 198 201 202 203 204 201 198 193 190 192 186 181 172 184 187 192 214 225 224 219 216 262 273 329 305 312 279 35 8 17 30 238 120 48 40 35 180 208 205 218 217
198 200 202 202 203 204 204 200 196 195 194 196 189 186 200 210 214 224 242 282 245 259 250 262 291 305 322 340 139 98 351 347 56 55 140 57 16 25 46 163 202 216 223
200 200 202 205 205 205 203 199 201 201 199 194 200 209 221 226 233 242 253 273 256 255 253 257 282 304 276 242 282 321 238 333 86 46 92 64 56 38 31 42 58 198 224
206 203 203 200 201 205 205 203 206 204 201 200 207 213 227 236 241 242 256 265 262 256 243 277 278 288 261 245 288 304 206 106 202 79 65 18 269 90 14 3 354 16 1
208 208 208 203 203 202 207 209 206 204 208 218 226 228 231 232 232 231 246 255 267 280 261 283 281 271 257 285 296 207 193 179 161 94 33 39 56 197 218 300 321 350 341
211 209 211 212 213 208 209 206 207 211 213 217 218 220 222 223 221 226 238 256 264 284 264 264 279 268 276 282 185 184 181 180 185 209 66 56 72 77 58 326 297 277 267
213 211 211 213 216 215 214 211 216 218 220 224 224 224 230 234 234 237 238 253 263 278 270 266 280 277 317 178 178 198 204 196 200 208 209 131 97 84 82 62 75 172 202
217 215 214 213 216 217 217 215 217 222 227 228 227 229 232 237 230 233 238 247 266 278 279 271 272 282 273 202 209 201 195 205 205 214 215 202 138 109 91 76 73 80 90
221 221 221 219 219 220 218 220 219 221 223 228 233 233 236 236 238 237 242 247 260 274 273 270 268 266 241 216 221 231 222 217 192 210 223 219 202 174 145 99 85 90 92
222 224 226 224 222 223 221 222 222 223 226 231 234 235 236 236 241 235 241 245 253 263 270 257 259 263 255 221 224 229 226 230 225 210 215 223 224 223 225 225 246 238 188
227 228 227 229 227 226 225 224 225 224 226 227 229 233 234 228 229 233 237 243 251 255 264 250 256 251 250 226 231 243 244 247 245 239 245 240 236 237 238 254 258 264 258